When you browse on this site, cookies collect data to enhance your experience and personalize the content and advertising you see.
Visit our Privacy Policy to learn more. By continuing to use the site, you agree to this use of cookies and data.
  • In Hungary
  • List of Countries
  • For 7 days
  • Water Temperature
  • Satellite Maps
  • Weather Map
  • News
  • Weather Widgets
  • user-avatar
    Login

    Hourly Weather Kaposvar

    Today, 18 January, Friday

    Time Temperature Precipitation Wind Pressure Humidity
    00:00 +5°C° 0 mm 5 mps 743 mmHg 75%
    01:00 +5°C° 0 mm 4 mps 743 mmHg 77%
    02:00 +4°C° 0.7 mm 4 mps 743 mmHg 80%
    03:00 +4°C° 0.7 mm 4 mps 743 mmHg 83%
    04:00 +3°C° 0.7 mm 4 mps 743 mmHg 86%
    05:00 +3°C° 1.4 mm 4 mps 744 mmHg 82%
    06:00 +3°C° 1.4 mm 4 mps 744 mmHg 79%
    07:00 +2°C° 1.4 mm 5 mps 744 mmHg 75%
    08:00 +3°C° 0.3 mm 4 mps 745 mmHg 74%
    09:00 +3°C° 0.3 mm 4 mps 746 mmHg 72%
    10:00 +2°C° 0.3 mm 3 mps 746 mmHg 70%
    11:00 +1°C° 0.1 mm 4 mps 747 mmHg 69%
    12:00 +1°C° 0.1 mm 4 mps 747 mmHg 68%
    13:00 +1°C° 0.1 mm 5 mps 748 mmHg 67%
    14:00 +1°C° 0 mm 4 mps 748 mmHg 67%
    15:00 +2°C° 0 mm 3 mps 749 mmHg 68%
    16:00 +2°C° 0 mm 3 mps 749 mmHg 69%
    17:00 +2°C° 0 mm 2 mps 750 mmHg 70%
    18:00 +1°C° 0 mm 2 mps 750 mmHg 72%
    19:00 +1°C° 0 mm 2 mps 750 mmHg 73%
    20:00 -1°C° 0 mm 2 mps 751 mmHg 74%
    21:00 -1°C° 0 mm 2 mps 751 mmHg 75%
    22:00 -2°C° 0 mm 2 mps 751 mmHg 76%
    23:00 -2°C° 0 mm 2 mps 751 mmHg 76%

    Tomorrow, 19 January, Saturday

    Time Temperature Precipitation Wind Pressure Humidity
    00:00 -2°C° 0 mm 2 mps 751 mmHg 77%
    01:00 0°C° 0 mm 1 mps 751 mmHg 78%
    02:00 0°C° 0 mm 1 mps 751 mmHg 77%
    03:00 0°C° 0 mm 1 mps 751 mmHg 76%
    04:00 0°C° 0 mm 1 mps 751 mmHg 75%
    05:00 0°C° 0 mm 1 mps 751 mmHg 74%
    06:00 0°C° 0 mm 1 mps 751 mmHg 73%
    07:00 0°C° 0 mm 1 mps 751 mmHg 72%
    08:00 0°C° 0 mm 1 mps 751 mmHg 69%
    09:00 +1°C° 0 mm 1 mps 752 mmHg 65%
    10:00 +1°C° 0 mm 2 mps 752 mmHg 62%
    11:00 +1°C° 0 mm 2 mps 751 mmHg 60%
    12:00 +2°C° 0 mm 2 mps 751 mmHg 57%
    13:00 +3°C° 0 mm 2 mps 750 mmHg 55%
    14:00 +2°C° 0 mm 2 mps 750 mmHg 60%
    15:00 +2°C° 0 mm 2 mps 749 mmHg 64%
    16:00 +2°C° 0 mm 2 mps 749 mmHg 68%
    17:00 +1°C° 0.1 mm 2 mps 749 mmHg 72%
    18:00 +1°C° 0.1 mm 2 mps 749 mmHg 75%
    19:00 +1°C° 0.1 mm 2 mps 749 mmHg 78%
    20:00 +1°C° 0.2 mm 2 mps 749 mmHg 82%
    21:00 -1°C° 0.2 mm 2 mps 748 mmHg 85%
    22:00 -1°C° 0.2 mm 2 mps 748 mmHg 88%
    23:00 -1°C° 0.1 mm 2 mps 748 mmHg 89%

    Day after tomorrow, 20 January, Sunday

    Time Temperature Precipitation Wind Pressure Humidity
    00:00 -1°C° 0.1 mm 2 mps 748 mmHg 90%
    01:00 -1°C° 0.1 mm 2 mps 747 mmHg 91%
    02:00 -1°C° 0 mm 2 mps 747 mmHg 92%
    03:00 0°C° 0 mm 1 mps 747 mmHg 93%
    04:00 0°C° 0 mm 1 mps 746 mmHg 93%
    05:00 0°C° 0 mm 1 mps 746 mmHg 94%
    06:00 0°C° 0 mm 1 mps 747 mmHg 94%
    07:00 0°C° 0 mm 1 mps 747 mmHg 95%
    08:00 0°C° 0 mm 1 mps 747 mmHg 92%
    09:00 +1°C° 0 mm 1 mps 747 mmHg 90%
    10:00 +1°C° 0 mm 1 mps 747 mmHg 87%
    11:00 +2°C° 0 mm 1 mps 747 mmHg 84%
    12:00 +2°C° 0 mm 1 mps 747 mmHg 81%
    13:00 +2°C° 0 mm 2 mps 747 mmHg 79%
    14:00 +3°C° 0 mm 1 mps 747 mmHg 79%
    15:00 +2°C° 0 mm 1 mps 747 mmHg 80%
    16:00 +2°C° 0 mm 1 mps 747 mmHg 81%
    17:00 +2°C° 0 mm 1 mps 747 mmHg 82%
    18:00 +2°C° 0 mm 1 mps 748 mmHg 83%
    19:00 +1°C° 0 mm 0 mps 748 mmHg 83%
    20:00 +1°C° 0 mm 1 mps 748 mmHg 84%
    21:00 +1°C° 0 mm 1 mps 749 mmHg 84%
    22:00 +1°C° 0 mm 1 mps 749 mmHg 84%
    23:00 +1°C° 0 mm 1 mps 749 mmHg 86%

    21 January, Monday

    Time Temperature Precipitation Wind Pressure Humidity
    00:00 0°C° 0 mm 1 mps 750 mmHg 87%
    01:00 0°C° 0 mm 1 mps 750 mmHg 89%
    02:00 -1°C° 0 mm 1 mps 750 mmHg 89%
    03:00 -1°C° 0 mm 1 mps 750 mmHg 90%
    04:00 -1°C° 0 mm 1 mps 750 mmHg 90%
    05:00 -1°C° 0 mm 1 mps 750 mmHg 90%
    06:00 -1°C° 0 mm 1 mps 751 mmHg 89%
    07:00 -1°C° 0 mm 1 mps 751 mmHg 89%
    08:00 0°C° 0 mm 1 mps 752 mmHg 83%
    09:00 0°C° 0 mm 1 mps 752 mmHg 78%
    10:00 +1°C° 0 mm 1 mps 752 mmHg 72%
    11:00 +2°C° 0 mm 1 mps 752 mmHg 68%
    12:00 +1°C° 0 mm 2 mps 752 mmHg 64%
    13:00 +2°C° 0 mm 2 mps 752 mmHg 60%
    14:00 +3°C° 0 mm 1 mps 752 mmHg 63%
    15:00 +2°C° 0 mm 1 mps 752 mmHg 66%
    16:00 +1°C° 0 mm 1 mps 752 mmHg 69%
    17:00 +1°C° 0 mm 1 mps 752 mmHg 73%
    18:00 0°C° 0 mm 1 mps 752 mmHg 76%
    19:00 0°C° 0 mm 1 mps 752 mmHg 80%
    20:00 -1°C° 0 mm 1 mps 752 mmHg 82%
    21:00 -1°C° 0 mm 1 mps 752 mmHg 84%
    22:00 -1°C° 0 mm 1 mps 752 mmHg 87%
    23:00 -1°C° 0 mm 1 mps 752 mmHg 87%

    22 January, Tuesday

    Time Temperature Precipitation Wind Pressure Humidity
    00:00 -1°C° 0 mm 1 mps 752 mmHg 88%
    01:00 -1°C° 0 mm 1 mps 752 mmHg 89%
    02:00 -3°C° 0 mm 2 mps 751 mmHg 89%
    03:00 -3°C° 0 mm 2 mps 751 mmHg 88%
    04:00 -2°C° 0 mm 2 mps 750 mmHg 88%
    05:00 -3°C° 0 mm 2 mps 750 mmHg 87%
    06:00 -3°C° 0 mm 2 mps 750 mmHg 86%
    07:00 -3°C° 0 mm 2 mps 749 mmHg 85%
    08:00 -4°C° 0 mm 3 mps 749 mmHg 79%
    09:00 -2°C° 0 mm 3 mps 749 mmHg 73%
    10:00 -2°C° 0 mm 3 mps 748 mmHg 67%
    11:00 -1°C° 0 mm 3 mps 747 mmHg 67%
    12:00 -1°C° 0 mm 4 mps 747 mmHg 67%
    13:00 -1°C° 0 mm 4 mps 746 mmHg 67%
    14:00 -1°C° 0 mm 4 mps 745 mmHg 71%
    15:00 -1°C° 0 mm 4 mps 744 mmHg 74%
    16:00 -1°C° 0 mm 4 mps 744 mmHg 78%
    17:00 -2°C° 0 mm 4 mps 743 mmHg 80%
    18:00 -2°C° 0 mm 4 mps 743 mmHg 81%
    19:00 -2°C° 0 mm 5 mps 743 mmHg 83%
    20:00 -2°C° 0.1 mm 5 mps 742 mmHg 84%
    21:00 -2°C° 0.1 mm 5 mps 742 mmHg 84%
    22:00 -2°C° 0.1 mm 5 mps 741 mmHg 85%
    23:00 -2°C° 0 mm 5 mps 741 mmHg 85%

    23 January, Wednesday

    Time Temperature Precipitation Wind Pressure Humidity
    00:00 -2°C° 0 mm 5 mps 740 mmHg 85%
    01:00 -2°C° 0 mm 5 mps 740 mmHg 85%
    02:00 -2°C° 0.3 mm 4 mps 739 mmHg 88%
    03:00 -2°C° 0.3 mm 4 mps 739 mmHg 90%
    04:00 -1°C° 0.3 mm 3 mps 738 mmHg 92%
    05:00 -1°C° 0.6 mm 3 mps 738 mmHg 93%
    06:00 -1°C° 0.6 mm 3 mps 738 mmHg 93%
    07:00 -1°C° 0.6 mm 3 mps 737 mmHg 94%
    08:00 -1°C° 0 mm 3 mps 737 mmHg 93%
    09:00 -1°C° 0 mm 3 mps 737 mmHg 93%
    10:00 0°C° 0 mm 3 mps 737 mmHg 93%
    11:00 +1°C° 0 mm 2 mps 737 mmHg 93%
    12:00 +2°C° 0 mm 2 mps 737 mmHg 92%
    13:00 +2°C° 0 mm 2 mps 737 mmHg 92%
    14:00 +2°C° 0 mm 2 mps 737 mmHg 93%
    15:00 +2°C° 0 mm 2 mps 737 mmHg 95%
    16:00 +2°C° 0 mm 2 mps 737 mmHg 96%
    17:00 +1°C° 0 mm 2 mps 737 mmHg 96%
    18:00 +1°C° 0 mm 2 mps 737 mmHg 97%
    19:00 +1°C° 0 mm 2 mps 737 mmHg 97%
    20:00 +1°C° 0 mm 2 mps 737 mmHg 97%
    21:00 +1°C° 0 mm 2 mps 737 mmHg 97%
    22:00 +2°C° 0 mm 1 mps 737 mmHg 97%
    23:00 +1°C° 0 mm 2 mps 737 mmHg 97%
    Show more